Total_Precipitation_Accumulation
0.42 0.42 0.40 0.40 0.35 0.34 0.38 0.43 0.73 1.06 1.46 1.87 2.02 1.97 1.91 1.80 1.59 1.30 1.17 1.16 1.15 1.13 1.12 1.06 1.01 1.00 0.92 0.91 0.93 1.07 1.08 1.02 0.93 0.84 0.82 0.84 0.83 0.81 0.77 0.73 0.68 0.65 0.63 0.60
0.38 0.30 0.35 0.40 0.41 0.44 0.50 0.55 0.75 1.18 1.74 2.09 2.16 2.02 1.95 1.88 1.72 1.60 1.49 1.39 1.36 1.31 1.29 1.26 1.19 1.16 1.06 1.05 1.07 1.11 1.17 1.24 1.25 1.18 1.09 1.05 0.96 0.85 0.81 0.77 0.67 0.57 0.52 0.51
0.61 0.35 0.49 0.84 0.69 0.64 0.71 0.77 0.97 1.50 1.82 1.83 1.91 2.00 2.08 2.12 2.01 1.88 1.76 1.66 1.62 1.57 1.50 1.42 1.36 1.34 1.31 1.24 1.20 1.21 1.24 1.27 1.24 1.23 1.20 1.12 1.00 0.86 0.81 0.78 0.74 0.70 0.60 0.54
0.68 0.73 1.23 1.15 0.65 0.64 0.83 0.94 1.00 1.21 1.38 1.47 1.51 1.62 1.70 1.81 1.87 1.84 1.69 1.62 1.63 1.62 1.60 1.58 1.46 1.39 1.37 1.32 1.27 1.26 1.27 1.26 1.22 1.12 1.06 0.97 0.90 0.85 0.77 0.72 0.72 0.71 0.66 0.61
0.77 1.04 1.23 1.08 0.64 0.62 1.01 1.51 1.21 1.14 1.07 1.02 1.01 1.14 1.49 1.67 1.72 1.85 1.83 1.72 1.68 1.63 1.56 1.51 1.43 1.38 1.35 1.35 1.31 1.29 1.26 1.17 1.07 0.99 0.95 0.87 0.83 0.76 0.68 0.61 0.60 0.57 0.54 0.51
0.83 1.20 1.50 1.37 0.64 0.46 0.87 1.85 1.45 1.23 1.09 1.00 1.12 1.35 1.44 1.43 1.44 1.51 1.58 1.57 1.46 1.34 1.28 1.29 1.30 1.28 1.26 1.27 1.24 1.19 1.02 0.85 0.77 0.79 0.79 0.75 0.70 0.62 0.57 0.56 0.55 0.48 0.43 0.43
0.92 1.29 1.51 0.80 0.42 0.58 1.40 1.83 1.45 1.22 1.08 1.03 1.23 1.31 1.13 1.08 1.16 1.19 1.23 1.21 1.12 1.05 1.11 1.17 1.17 1.11 1.09 1.06 1.03 0.95 0.87 0.74 0.69 0.68 0.62 0.60 0.58 0.57 0.54 0.51 0.54 0.53 0.50 0.46
1.02 1.38 1.51 0.65 0.50 0.88 1.10 0.95 0.97 0.96 0.91 0.86 0.83 0.75 0.78 0.84 0.90 0.87 0.87 0.89 0.85 0.86 0.91 0.94 0.89 0.91 0.98 0.96 0.85 0.77 0.81 0.76 0.71 0.62 0.51 0.52 0.61 0.59 0.55 0.58 0.62 0.60 0.56 0.50
1.01 1.22 1.00 0.57 0.53 0.62 0.66 0.72 0.71 0.70 0.65 0.56 0.51 0.49 0.59 0.59 0.59 0.59 0.60 0.66 0.69 0.68 0.71 0.78 0.78 0.82 0.88 0.87 0.76 0.74 0.81 0.79 0.67 0.55 0.56 0.57 0.60 0.57 0.50 0.49 0.46 0.43 0.42 0.42
0.71 0.80 0.64 0.54 0.51 0.48 0.45 0.48 0.46 0.47 0.48 0.40 0.38 0.43 0.49 0.51 0.48 0.45 0.46 0.49 0.56 0.58 0.57 0.62 0.65 0.70 0.75 0.68 0.66 0.80 0.88 0.79 0.63 0.53 0.51 0.50 0.49 0.42 0.37 0.37 0.36 0.35 0.33 0.32
0.70 0.73 0.69 0.68 0.48 0.38 0.33 0.30 0.31 0.34 0.36 0.33 0.32 0.38 0.40 0.41 0.43 0.43 0.44 0.46 0.50 0.53 0.51 0.49 0.52 0.58 0.54 0.55 0.67 0.89 0.86 0.72 0.58 0.47 0.43 0.41 0.34 0.27 0.22 0.21 0.19 0.23 0.25 0.23
0.64 0.58 0.69 0.74 0.53 0.37 0.35 0.30 0.29 0.27 0.28 0.33 0.35 0.38 0.35 0.33 0.36 0.38 0.40 0.42 0.49 0.49 0.44 0.45 0.48 0.50 0.48 0.50 0.58 0.77 0.77 0.58 0.47 0.41 0.36 0.30 0.27 0.26 0.18 0.13 0.11 0.09 0.11 0.12
0.34 0.33 0.40 0.39 0.32 0.28 0.27 0.28 0.28 0.27 0.27 0.32 0.35 0.35 0.32 0.30 0.29 0.34 0.39 0.40 0.45 0.45 0.41 0.39 0.41 0.43 0.41 0.40 0.44 0.57 0.60 0.45 0.34 0.31 0.31 0.29 0.27 0.31 0.32 0.19 0.11 0.09 0.10 0.11
0.18 0.23 0.28 0.29 0.31 0.26 0.26 0.28 0.27 0.25 0.27 0.32 0.34 0.32 0.30 0.28 0.27 0.30 0.33 0.31 0.27 0.28 0.32 0.35 0.34 0.33 0.28 0.25 0.32 0.35 0.33 0.24 0.20 0.24 0.23 0.22 0.20 0.22 0.25 0.30 0.30 0.23 0.16 0.12
0.17 0.20 0.26 0.30 0.31 0.28 0.29 0.30 0.29 0.29 0.28 0.30 0.28 0.26 0.24 0.22 0.21 0.21 0.21 0.19 0.21 0.26 0.27 0.25 0.28 0.29 0.21 0.18 0.20 0.21 0.20 0.18 0.16 0.15 0.14 0.14 0.13 0.14 0.15 0.20 0.29 0.30 0.22 0.15
0.21 0.21 0.23 0.27 0.31 0.31 0.31 0.34 0.34 0.30 0.25 0.24 0.23 0.23 0.21 0.18 0.16 0.15 0.15 0.15 0.22 0.25 0.23 0.22 0.24 0.19 0.14 0.15 0.16 0.15 0.13 0.11 0.12 0.12 0.12 0.11 0.11 0.12 0.14 0.17 0.20 0.23 0.22 0.16
0.27 0.26 0.23 0.23 0.25 0.28 0.25 0.23 0.24 0.24 0.22 0.21 0.18 0.17 0.15 0.13 0.14 0.14 0.14 0.15 0.20 0.22 0.20 0.20 0.18 0.11 0.09 0.10 0.12 0.10 0.07 0.06 0.06 0.07 0.10 0.10 0.09 0.10 0.11 0.13 0.16 0.17 0.15 0.12
0.27 0.23 0.20 0.18 0.19 0.20 0.19 0.18 0.17 0.19 0.20 0.16 0.13 0.12 0.12 0.12 0.13 0.12 0.12 0.12 0.14 0.17 0.16 0.13 0.11 0.08 0.07 0.07 0.09 0.07 0.06 0.05 0.05 0.07 0.07 0.07 0.08 0.09 0.10 0.12 0.13 0.13 0.14 0.12
0.15 0.12 0.11 0.11 0.12 0.12 0.14 0.16 0.13 0.14 0.15 0.12 0.10 0.10 0.11 0.10 0.09 0.10 0.10 0.12 0.13 0.15 0.13 0.10 0.07 0.06 0.06 0.05 0.05 0.06 0.05 0.04 0.04 0.05 0.05 0.05 0.06 0.07 0.08 0.08 0.09 0.10 0.12 0.15
0.08 0.08 0.09 0.09 0.09 0.09 0.12 0.13 0.11 0.11 0.10 0.09 0.08 0.08 0.08 0.07 0.07 0.08 0.09 0.13 0.13 0.11 0.09 0.07 0.05 0.06 0.05 0.03 0.03 0.03 0.04 0.04 0.04 0.03 0.03 0.04 0.05 0.05 0.06 0.06 0.07 0.09 0.12 0.14
0.08 0.07 0.07 0.07 0.08 0.09 0.11 0.12 0.10 0.10 0.09 0.07 0.07 0.07 0.07 0.06 0.07 0.08 0.09 0.11 0.10 0.08 0.07 0.04 0.05 0.04 0.03 0.02 0.02 0.02 0.02 0.03 0.03 0.02 0.03 0.04 0.03 0.03 0.04 0.05 0.07 0.09 0.12 0.12
0.10 0.08 0.08 0.09 0.09 0.12 0.13 0.11 0.10 0.09 0.09 0.07 0.06 0.06 0.06 0.06 0.07 0.07 0.07 0.08 0.07 0.04 0.04 0.03 0.03 0.02 0.02 0.02 0.02 0.01 0.02 0.02 0.02 0.02 0.03 0.03 0.02 0.03 0.04 0.05 0.06 0.08 0.09 0.09
0.15 0.12 0.12 0.13 0.13 0.14 0.14 0.11 0.09 0.09 0.09 0.07 0.06 0.06 0.07 0.07 0.07 0.06 0.06 0.04 0.04 0.03 0.04 0.04 0.02 0.01 0.01 0.02 0.01 0.02 0.01 0.01 0.02 0.02 0.02 0.02 0.02 0.02 0.03 0.04 0.05 0.06 0.07 0.08
0.22 0.18 0.17 0.17 0.18 0.19 0.17 0.12 0.08 0.07 0.08 0.08 0.08 0.08 0.08 0.06 0.05 0.03 0.02 0.02 0.02 0.02 0.02 0.02 0.01 0.01 0.01 0.01 0.01 0.02 0.01 0.01 0.02 0.02 0.02 0.02 0.02 0.02 0.03 0.03 0.04 0.04 0.05 0.06
0.21 0.23 0.23 0.24 0.29 0.26 0.19 0.13 0.09 0.08 0.08 0.09 0.09 0.08 0.07 0.04 0.03 0.03 0.02 0.02 0.02 0.02 0.01 0.01 0.01 0.01 0.01 0.01 0.01 0.01 0.01 0.01 0.02 0.02 0.02 0.02 0.02 0.02 0.03 0.03 0.04 0.04 0.05 0.06
0.29 0.35 0.32 0.29 0.28 0.23 0.16 0.12 0.12 0.12 0.11 0.11 0.10 0.09 0.07 0.04 0.04 0.03 0.03 0.03 0.03 0.02 0.01 0.01 0.01 0.01 0.01 0.02 0.01 0.01 0.01 0.02 0.02 0.02 0.02 0.02 0.03 0.03 0.03 0.04 0.05 0.05 0.06 0.06
0.40 0.40 0.36 0.32 0.25 0.19 0.15 0.13 0.14 0.13 0.13 0.15 0.13 0.08 0.06 0.04 0.04 0.04 0.03 0.03 0.02 0.02 0.02 0.01 0.01 0.01 0.01 0.01 0.01 0.01 0.02 0.02 0.02 0.03 0.02 0.02 0.02 0.02 0.03 0.04 0.05 0.06 0.05 0.04